Regional Weather Roundup
Issued by NWS

Home | Current Version | Previous Version | Graphics & Text | Print | Product List | Glossary On
Versions: 1 2 3 4 5 6 7 8 9 10 11 12 13 14 15 16 17 18 19 20 21 22 23 24 25 26 27 28 29 30 31 32 33 34 35 36 37 38 39 40 41 42 43 44 45 46 47 48 49 50
000
ASUS43 KDTX 291001
RWRMI
MICHIGAN HOURLY REGIONAL WEATHER ROUNDUP
NATIONAL WEATHER SERVICE DETROIT/PONTIAC MI
600 AM EDT SUN MAR 29 2015

NOTE: "FAIR" INDICATES FEW OR NO CLOUDS BELOW 12,000 FEET WITH NO
SIGNIFICANT WEATHER AND/OR OBSTRUCTION TO VISIBILITY.

MIZ047>049-052>055-059>063-066>070-074>076-081>083-291100-
SOUTHEAST LOWER MICHIGAN

CITY           SKY/WX    TMP DP  RH WIND       PRES   REMARKS
ADRIAN         CLEAR     21  15  78 SW9       30.26F WCI  11
ALMA           CLEAR     21  13  71 S6        30.20F WCI  13
ANN ARBOR      CLEAR     14  11  87 CALM      30.25S
BAD AXE        CLEAR     23  13  65 SW6       30.20S WCI  15
CARO           CLEAR     20  11  69 SW3       30.20S
DETROIT CITY   CLEAR     25  13  60 S5        30.26F WCI  19
DETROIT        CLEAR     22  14  71 S8        30.27F WCI  12
FLINT          CLEAR     23  10  57 S6        30.23S WCI  16
GROSSE ILE     CLEAR     25  16  68 SW6       30.26S WCI  18
HILLSDALE      CLEAR     20  11  67 SW7       30.23R WCI  12
HOWELL         CLEAR     21  11  64 S5        30.22S WCI  15

CITY           SKY/WX    TMP DP  RH WIND       PRES   REMARKS
JACKSON        CLEAR     18  11  74 SW5       30.23S WCI  11
LAMBERTVILLE   CLEAR     27  16  63 S5        30.28S WCI  21
LANSING        CLEAR     22  11  62 S7        30.22F WCI  13
LAPEER         FAIR      19  11  72 S3        30.22S
MASON          CLEAR     21  14  75 CALM      30.22F
MONROE         CLEAR     25  18  74 SW6       30.26F WCI  18
MT. CLEMENS    CLEAR     21  16  82 SW8       30.22F WCI  11
PONTIAC        CLEAR     18  10  71 CALM      30.22S
PORT HOPE        N/A     25  13  60 VRB6      30.18F WCI  18
PORT HURON     CLEAR     19  18  93 S3        30.25S
TRI CITIES     CLEAR     23  11  60 S7        30.20F WCI  15
TROY           CLEAR     23  13  65 CALM      30.27R
SAGINAW HB     CLEAR     23  14  68 S8        30.21S WCI  14
$$
MIZ043>046-050>051-056>058-064>065-071>073-077>080-291100-
SOUTHWEST LOWER MICHIGAN

CITY           SKY/WX    TMP DP  RH WIND       PRES   REMARKS
BATTLE CREEK   CLEAR     23  14  68 S8        30.21F WCI  14
BENTON HARBOR  PTCLDY    24  15  68 S6        30.20F WCI  17
BIG RAPIDS     FAIR      21   6  51 CALM      30.14F
COLDWATER      CLEAR     23  13  65 S5        30.23F WCI  17
FREMONT        FAIR      22   8  54 S5        30.16F WCI  16
HOLLAND        PTCLDY    24  14  65 S9        30.19F WCI  14
GRAND RAPIDS   CLEAR     22  12  65 S9        30.19F WCI  12
IONIA          FAIR      24  13  64 S9        30.18F WCI  14
KALAMAZOO      CLEAR     23  15  71 S9        30.22F WCI  13
LUDINGTON      MOCLDY    28  21  74 S9        30.12F WCI  19
MARSHALL       CLEAR     21  13  70 S5        30.22F WCI  15
MOUNT PLEASANT CLEAR     21   8  59 S3        30.18S
MUSKEGON       PTCLDY    24  15  68 SE8       30.17F WCI  15
SOUTH HAVEN    PTCLDY    25  14  63 S6        30.20F WCI  18
$$
MIZ016>042-291100-
NORTHERN LOWER MICHIGAN

CITY           SKY/WX    TMP DP  RH WIND       PRES   REMARKS
ALPENA         CLEAR     22   7  52 S6        30.12F WCI  14
BEAVER ISLAND  PTCLDY    27  22  83 S9G17     30.03F WCI  17
BELLAIRE       PTCLDY    26   9  48 CALM      30.10F
CADILLAC       CLEAR     19   4  51 S5        30.08F WCI  13
CHARLEVOIX     PTCLDY    26  12  56 S9        30.10F WCI  17
FRANKFORT      FAIR      29  18  63 S7        30.08F WCI  22
GAYLORD        CLEAR     22   7  52 SW8       30.06F WCI  12
GRAYLING       CLEAR     21   2  43 CALM      30.10F
HARBOR SPRINGS CLEAR     23  11  60 CALM      30.07F
HOUGHTON LAKE  CLEAR     20   2  45 S9        30.12F WCI   9
MANISTEE       FAIR      25  16  68 SE7       30.10F WCI  17
OSCODA         CLEAR     17  11  77 SW6       30.17S WCI   9
PELLSTON       FAIR      26  10  50 SW10      30.07F WCI  16
ROGERS CITY    PTCLDY    23  10  57 S8        30.10F WCI  14
TRAVERSE CITY  PTCLDY    26  11  52 S7        30.08F WCI  18
$$
MIZ007>008-015-291100-
EASTERN UPPER MICHIGAN

CITY           SKY/WX    TMP DP  RH WIND       PRES   REMARKS
KINROSS        PTCLDY    21  16  79 SW7       30.03F WCI  13
MACKINAC ISLAN PTCLDY    24  11  57 S9        30.05S WCI  14
NEWBERRY       CLEAR     24  24  97 S9        29.98F WCI  15
S. S. MARIE    MOCLDY    15   9  76 E6        30.04F WCI   6
$$
MIZ004>006-011>014-085-291100-
CENTRAL UPPER MICHIGAN

CITY           SKY/WX    TMP DP  RH WIND       PRES   REMARKS
MANISTIQUE     MOCLDY    32  28  85 SW16G23   29.99F WCI  21
ESCANABA       MOCLDY    30  21  69 SW13G24   29.98F WCI  20
MENOMINEE      MOCLDY    30  19  64 SW10      29.98F WCI  21
SAWYER-GWINN   MOCLDY    27  16  62 SW13G21   29.88F WCI  16
$$
MIZ001>003-009>011-084-291100-
WESTERN UPPER MICHIGAN

CITY           SKY/WX    TMP DP  RH WIND       PRES   REMARKS
IRON MOUNTAIN  MOCLDY    29  14  53 S9        29.89F WCI  20
HOUGHTON       CLOUDY    33  14  45 SW15      29.77F WCI  23
COPPER HARBOR    N/A     33  18  53 SW13G23   29.78F WCI  24
IRONWOOD       MOCLDY    34  16  47 S20G28    29.73F WCI  22
$$

ABBREVIATIONS USED IN REMARKS
   TC - TEMPERATURE IN CELSIUS
  WCI - WIND CHILL INDEX
   HX - HEAT INDEX
  VSB - VISIBILITY



USA.gov is the U.S. government's official web portal to all federal, state and local government web resources and services.